Orbital Elements at Epoch 2459200.5 (2020-Dec-17.0) TDB
Reference: JPL 16 (heliocentric ecliptic J2000)
Element | Value | Uncertainty (1-sigma) | Units |
e | .1295319058157669 | 4.858e-08 | |
a | 2.62976482950974 | 2.6968e-08 | au |
q | 2.289126379296068 | 1.3502e-07 | au |
i | 2.252328987692021 | 5.1403e-06 | deg |
node | 53.9497303612018 | 0.00017504 | deg |
peri | 160.0824024054181 | 0.00017767 | deg |
M | 335.1128676223241 | 3.681e-05 | deg |
tp | 2459308.182753761968 (2021-Apr-03.68275376) | 0.00016046 | TDB |
period | 1557.664047669941 4.26 | 2.396e-05 6.56e-08 | d yr |
n | .2311153040596349 | 3.555e-09 | deg/d |
Q | 2.970403279723412 | 3.0461e-08 | au |
|
| | Orbit Determination Parameters
Additional Information
|